DECAYED

FENGYUN 1C DEB, 29886 (Decayed)

Orbit data source: Space-Track

FENGYUN 1C DEB, 29886 was space debris in SSO originally from a launch on Mon, 10 May 1999 UTC launched from the Taiyaun Space Center, China (TSC). Fengyun 1C debris stems from the Chinese weather satellite Fengyun-1C, which was intentionally destroyed by a Chinese anti-satellite missile in 2007. This event dramatically increased the amount of space debris, with thousands of trackable fragments posing hazards to satellites and human spaceflight. The Fengyun 1C debris cloud has become a focal point in discussions about space sustainability and the need for international regulations to prevent the creation of new debris.

Not visible in the next 10 days
Identifier
29886, 1999-025GG
Orbit
Decayed
Country
Flag of CNCN / PRC
Related business
Manufacturer
Unknown
Mission
Decayed spacecraft
Bus & Motor
Unknown
Mass
Unknown
Launch date (UTC)
1999-05-10 (27 years ago)
Launch vehicle
Unknown
Launch site
Taiyaun Space Center, China (TSC)
Object type
Payload
Rocket body
Debris
Shape & HBR
Unknown shape, 0.1 m
Radar Cross Section
Small (<0.1 m²)

Expand to show TLE details & history
Last TLE update: 10 months ago

TLE from 10 months ago
0 FENGYUN 1C DEB
1 29886U 99025GG  25046.30700732  .06162792  57237-1  28615-1 0  9998
2 29886  99.1628 168.9700 0024787 313.8777  46.0442 15.88317303944371
Epoch: 2025-02-15T07:22Z
TLE epoch observation values (Epoch: 2025-02-15T07:22:05.432Z)
Latitude
0.00004°
Longitude
-87.10894°
Altitude
298.642 km
Speed
7.735 km/s
True Right ascension
11h 15m 52s
True Declination
0° 00' 00"
Sunlit
Object was in full shadow at epoch
Visualization orbit readout
Latitude
Unknown
Longitude
Unknown
Altitude
Unknown
Speed
Unknown
Apparent Right ascension
Unknown
Apparent Declination
Unknown
Sunlit
N/A
Visualization observer readout
Local Sidereal Time
09:43:12
Azimuth
Unknown
Elevation
Unknown
Doppler factor
Unknown
Orbital elements
Apogee altitude
320.525 km
Perigee altitude
287.399 km
Semi-major axis
6,682.099 km
Eccentricity
0.00248
Inclination
99.1628°
RAAN
168.97°
Arg. of periapsis
313.8777°
True anomaly
46.24911°
Mean anomaly
46.0442°
Eccentric anomaly
46.14661°
Mean motion
3.97351 °/min
Orbital period
90.6 mins
BSTAR
0.028615
Loading maneuver chart data...
Computing Atmospheric mass density...

Documentation

Showing up to 5 results
|